| time (UTC) | temp C | wind direction | speed KPH | gust KPH | rain 1hr cm | rain 24hr cm | rain mn cm | humidity % | barometer mb |
| 20260502163210 | 25 | 272 | 3.2 | 0.0 | 0.00 | 0.00 | 0.00 | 30 | 1015.6 |
| 20260502160213 | 23 | 298 | 3.2 | 0.0 | 0.00 | 0.00 | 0.00 | 33 | 1016.0 |
| 20260502150210 | 24 | 232 | 3.2 | 0.0 | 0.00 | 0.00 | 0.00 | 32 | 1016.7 |
| 20260502130210 | 23 | 117 | 8.0 | 0.0 | 0.00 | 0.00 | 0.00 | 36 | 1018.2 |
| 20260502123210 | 23 | 162 | 9.7 | 0.0 | 0.00 | 0.00 | 0.00 | 36 | 1018.6 |
| 20260502120210 | 23 | 127 | 9.7 | 0.0 | 0.00 | 0.00 | 0.00 | 37 | 1019.1 |
| 20260502113210 | 22 | 151 | 8.0 | 0.0 | 0.00 | 0.00 | 0.00 | 40 | 1019.5 |
| 20260502110210 | 22 | 178 | 9.7 | 0.0 | 0.00 | 0.00 | 0.00 | 41 | 1019.9 |
| 20260502103210 | 21 | 230 | 4.8 | 0.0 | 0.00 | 0.00 | 0.00 | 46 | 1020.2 |
| 20260502100210 | 20 | 165 | 9.7 | 0.0 | 0.00 | 0.00 | 0.00 | 48 | 1020.7 |
| 20260502090210 | 18 | 188 | 8.0 | 0.0 | 0.00 | 0.00 | 0.00 | 51 | 1021.3 |
| 20260502070213 | 13 | 184 | 3.2 | 0.0 | 0.00 | 0.00 | 0.00 | 58 | 1021.9 |
| 20260502063212 | 11 | 184 | 3.2 | 0.0 | 0.00 | 0.00 | 0.00 | 61 | 1022.0 |
| 20260502060210 | 10 | 278 | 0.0 | 0.0 | 0.00 | 0.00 | 0.00 | 66 | 1022.0 |
| 20260502053210 | 6 | 278 | 0.0 | 0.0 | 0.00 | 0.00 | 0.00 | 80 | 1022.0 |
| 20260502050211 | 4 | 278 | 0.0 | 0.0 | 0.00 | 0.00 | 0.00 | 81 | 1022.0 |
| 20260502043211 | 4 | 278 | 0.0 | 0.0 | 0.00 | 0.00 | 0.00 | 82 | 1021.8 |
| 20260502040212 | 4 | 278 | 0.0 | 0.0 | 0.00 | 0.00 | 0.00 | 81 | 1021.7 |
| 20260502033211 | 4 | 278 | 1.6 | 0.0 | 0.00 | 0.00 | 0.00 | 79 | 1021.7 |
| 20260502030211 | 5 | 47 | 0.0 | 0.0 | 0.00 | 0.00 | 0.00 | 77 | 1021.7 |
| 20260502023214 | 5 | 47 | 0.0 | 0.0 | 0.00 | 0.00 | 0.00 | 75 | 1021.8 |
| 20260502020212 | 6 | 47 | 0.0 | 0.0 | 0.00 | 0.00 | 0.00 | 72 | 1021.8 |
| 20260502013211 | 7 | 47 | 1.6 | 0.0 | 0.00 | 0.00 | 0.00 | 69 | 1021.8 |
| 20260502010211 | 8 | 45 | 3.2 | 0.0 | 0.00 | 0.00 | 0.00 | 66 | 1021.9 |
| 20260502003209 | 9 | 25 | 0.0 | 0.0 | 0.00 | 0.00 | 0.00 | 62 | 1022.1 |
| 20260502000211 | 10 | 39 | 0.0 | 0.0 | 0.00 | 0.00 | 0.00 | 57 | 1022.2 |
| 20260501233210 | 11 | 21 | 9.7 | 0.0 | 0.00 | 0.00 | 0.00 | 54 | 1022.3 |
| 20260501230210 | 11 | 9 | 9.7 | 0.0 | 0.00 | 0.00 | 0.00 | 54 | 1022.4 |
| 20260501223209 | 11 | 29 | 6.4 | 0.0 | 0.00 | 0.00 | 0.00 | 53 | 1022.6 |
| 20260501220211 | 12 | 9 | 8.0 | 0.0 | 0.00 | 0.00 | 0.00 | 50 | 1022.5 |
| 20260501213210 | 13 | 16 | 8.0 | 0.0 | 0.00 | 0.00 | 0.00 | 49 | 1022.6 |
| 20260501210209 | 13 | 17 | 11.3 | 0.0 | 0.00 | 0.00 | 0.00 | 48 | 1022.7 |
| 20260501203209 | 13 | 5 | 6.4 | 0.0 | 0.00 | 0.00 | 0.00 | 46 | 1022.8 |
| 20260501200211 | 15 | 17 | 4.8 | 0.0 | 0.00 | 0.00 | 0.00 | 44 | 1022.9 |
| 20260501193209 | 15 | 44 | 6.4 | 0.0 | 0.00 | 0.00 | 0.00 | 42 | 1022.6 |
| 20260501190210 | 16 | 11 | 8.0 | 0.0 | 0.00 | 0.00 | 0.00 | 40 | 1022.3 |
| 20260501183210 | 17 | 19 | 11.3 | 0.0 | 0.00 | 0.00 | 0.00 | 37 | 1022.1 |
| 20260501180210 | 18 | 65 | 12.9 | 0.0 | 0.00 | 0.00 | 0.00 | 35 | 1022.0 |
| 20260501173211 | 20 | 58 | 11.3 | 0.0 | 0.00 | 0.00 | 0.00 | 32 | 1021.9 |
| 20260501170210 | 20 | 88 | 12.9 | 0.0 | 0.00 | 0.00 | 0.00 | 29 | 1022.0 |